Location: Brunsen
(51.8651°N, 9.8610°E)
Time: 17:28:54
(UTC+00:00)

ADEOS II - Pass Details

Date: 23 May 2024
Orbit: 796 x 798 km, 98.7° (Epoch: 23 June)

Event Time Altitude Azimuth Distance (km) Brightness Sun altitude
Rises 01:11:36 0° 20° (NNE) 3,315 7.2 -13.3°
Reaches altitude 10° 01:14:05 10° 27° (NNE) 2,380 6.1 -13.1°
Maximum altitude 01:19:02 41° 98° (E) 1,141 3.1 -12.8°
Drops below altitude 10° 01:23:58 10° 168° (SSE) 2,362 4.1 -12.4°
Enters shadow 01:24:18 - 170° (S) 2,488 4.2 -12.4°
